| time (UTC) | temp F | wind direction | speed knots | gust knots | rain 1hr in | rain 24hr in | rain mn in | humidity % | barometer mb |
| 20260906111331 | 65 | 124 | 0.0 | 0.0 | 0.00 | 0.00 | 0.00 | 99 | 1017.9 |
| 20260906110826 | 65 | 162 | 0.0 | 0.0 | 0.00 | 0.00 | 0.00 | 99 | 1017.8 |
| 20260906110322 | 65 | 237 | 0.0 | 0.0 | 0.00 | 0.00 | 0.00 | 99 | 1017.5 |
| 20260906105821 | 65 | 200 | 0.0 | 0.0 | 0.00 | 0.00 | 0.00 | 99 | 1017.6 |
| 20260906105317 | 65 | 136 | 0.0 | 0.0 | 0.00 | 0.00 | 0.00 | 99 | 1017.6 |
| 20260906104813 | 65 | 157 | 0.0 | 0.0 | 0.00 | 0.00 | 0.00 | 99 | 1017.7 |
| 20260906104311 | 65 | 169 | 0.0 | 0.0 | 0.00 | 0.00 | 0.00 | 99 | 1017.8 |
| 20260906103810 | 65 | 141 | 0.0 | 0.0 | 0.00 | 0.00 | 0.00 | 99 | 1017.7 |
| 20260906103309 | 65 | 117 | 0.0 | 0.0 | 0.00 | 0.00 | 0.00 | 99 | 1017.5 |
| 20260906102805 | 65 | 140 | 0.0 | 0.0 | 0.00 | 0.00 | 0.00 | 99 | 1017.6 |
| 20260906102306 | 66 | 232 | 0.0 | 0.0 | 0.00 | 0.00 | 0.00 | 99 | 1017.4 |
| 20260906101759 | 65 | 232 | 0.0 | 0.0 | 0.00 | 0.00 | 0.00 | 99 | 1017.4 |
| 20260906101253 | 65 | 330 | 0.0 | 0.0 | 0.00 | 0.00 | 0.00 | 99 | 1017.4 |
| 20260906100749 | 65 | 330 | 0.0 | 0.0 | 0.00 | 0.00 | 0.00 | 99 | 1017.5 |
| 20260906100248 | 66 | 288 | 0.0 | 0.9 | 0.00 | 0.00 | 0.00 | 99 | 1017.0 |
| 20260906095744 | 66 | 202 | 0.0 | 0.0 | 0.00 | 0.00 | 0.00 | 99 | 1017.1 |
| 20260906095239 | 66 | 169 | 0.0 | 0.0 | 0.00 | 0.00 | 0.00 | 99 | 1017.0 |
| 20260906094738 | 66 | 169 | 0.0 | 0.0 | 0.00 | 0.00 | 0.00 | 99 | 1017.1 |
| 20260906094233 | 67 | 169 | 0.0 | 0.0 | 0.00 | 0.00 | 0.00 | 99 | 1017.2 |
| 20260906093730 | 67 | 203 | 0.0 | 0.0 | 0.00 | 0.00 | 0.00 | 99 | 1016.8 |
| 20260906093225 | 67 | 203 | 0.0 | 0.0 | 0.00 | 0.00 | 0.00 | 99 | 1016.5 |
| 20260906092721 | 67 | 203 | 0.0 | 0.0 | 0.00 | 0.00 | 0.00 | 99 | 1016.7 |
| 20260906092220 | 67 | 203 | 0.0 | 0.0 | 0.00 | 0.00 | 0.00 | 99 | 1016.8 |
| 20260906091717 | 67 | 203 | 0.0 | 0.0 | 0.00 | 0.00 | 0.00 | 99 | 1016.8 |
| 20260906091213 | 67 | 203 | 0.0 | 0.0 | 0.00 | 0.00 | 0.00 | 99 | 1016.8 |
| 20260906090708 | 67 | 203 | 0.0 | 0.0 | 0.00 | 0.00 | 0.00 | 99 | 1016.8 |
| 20260906090208 | 67 | 203 | 0.0 | 0.0 | 0.00 | 0.00 | 0.00 | 99 | 1016.7 |
| 20260906085707 | 67 | 203 | 0.0 | 0.0 | 0.00 | 0.00 | 0.00 | 99 | 1016.6 |
| 20260906085206 | 66 | 203 | 0.0 | 0.0 | 0.00 | 0.00 | 0.00 | 99 | 1016.8 |
| 20260906084701 | 66 | 203 | 0.0 | 0.0 | 0.00 | 0.00 | 0.00 | 99 | 1016.7 |
| 20260906084154 | 67 | 203 | 0.0 | 0.0 | 0.00 | 0.00 | 0.00 | 99 | 1016.8 |
| 20260906083649 | 66 | 203 | 0.0 | 0.0 | 0.00 | 0.00 | 0.00 | 99 | 1017.0 |
| 20260906083145 | 67 | 203 | 0.0 | 0.0 | 0.00 | 0.00 | 0.00 | 99 | 1017.0 |
| 20260906082640 | 67 | 210 | 0.0 | 0.0 | 0.00 | 0.00 | 0.00 | 99 | 1017.0 |
| 20260906082135 | 67 | 210 | 0.0 | 0.0 | 0.00 | 0.00 | 0.00 | 99 | 1016.8 |
| 20260906081631 | 67 | 244 | 1.7 | 1.7 | 0.00 | 0.00 | 0.00 | 99 | 1016.8 |
| 20260906081126 | 67 | 246 | 0.9 | 1.7 | 0.00 | 0.00 | 0.00 | 99 | 1016.7 |
| 20260906080623 | 67 | 250 | 0.9 | 1.7 | 0.00 | 0.00 | 0.00 | 99 | 1016.8 |
| 20260906080119 | 67 | 252 | 0.9 | 0.9 | 0.00 | 0.00 | 0.00 | 99 | 1016.7 |
| 20260906075618 | 67 | 204 | 0.0 | 0.9 | 0.00 | 0.00 | 0.00 | 99 | 1017.1 |
| 20260906075113 | 66 | 211 | 0.0 | 0.9 | 0.00 | 0.00 | 0.00 | 99 | 1017.0 |
| 20260906074608 | 66 | 268 | 0.9 | 1.7 | 0.00 | 0.00 | 0.00 | 99 | 1016.8 |
| 20260906074107 | 65 | 196 | 0.0 | 0.0 | 0.00 | 0.00 | 0.00 | 99 | 1016.8 |
| 20260906073602 | 66 | 196 | 0.0 | 0.0 | 0.00 | 0.00 | 0.00 | 99 | 1016.8 |
| 20260906073052 | 66 | 196 | 0.0 | 0.0 | 0.00 | 0.00 | 0.00 | 99 | 1016.6 |
| 20260906072547 | 66 | 196 | 0.0 | 0.0 | 0.00 | 0.00 | 0.00 | 99 | 1016.7 |
| 20260906072043 | 65 | 196 | 0.0 | 0.0 | 0.00 | 0.00 | 0.00 | 99 | 1016.8 |
| 20260906071539 | 66 | 196 | 0.0 | 0.0 | 0.00 | 0.00 | 0.00 | 99 | 1017.0 |
| 20260906071033 | 66 | 196 | 0.0 | 0.0 | 0.00 | 0.00 | 0.00 | 99 | 1017.0 |
| 20260906070531 | 65 | 181 | 0.0 | 0.0 | 0.00 | 0.00 | 0.00 | 99 | 1017.1 |
| 20260906070026 | 66 | 223 | 0.0 | 0.0 | 0.00 | 0.00 | 0.00 | 99 | 1017.2 |
| 20260906065525 | 66 | 215 | 0.0 | 0.0 | 0.00 | 0.00 | 0.00 | 99 | 1017.2 |
| 20260906065021 | 66 | 215 | 0.0 | 0.0 | 0.00 | 0.00 | 0.00 | 99 | 1017.0 |
| 20260906064517 | 66 | 215 | 0.0 | 0.0 | 0.00 | 0.00 | 0.00 | 99 | 1017.2 |
| 20260906064016 | 66 | 186 | 0.0 | 0.0 | 0.00 | 0.00 | 0.00 | 99 | 1017.2 |
| 20260906063512 | 66 | 192 | 0.0 | 0.0 | 0.00 | 0.00 | 0.00 | 99 | 1017.2 |
| 20260906063008 | 66 | 192 | 0.0 | 0.0 | 0.00 | 0.00 | 0.00 | 99 | 1017.2 |
| 20260906062502 | 66 | 191 | 0.0 | 0.0 | 0.00 | 0.00 | 0.00 | 99 | 1017.3 |
| 20260906061957 | 66 | 191 | 0.0 | 0.0 | 0.00 | 0.00 | 0.00 | 99 | 1017.5 |
| 20260906061454 | 66 | 191 | 0.0 | 0.0 | 0.00 | 0.00 | 0.00 | 99 | 1017.2 |
| 20260906060953 | 66 | 191 | 0.0 | 0.0 | 0.00 | 0.00 | 0.00 | 99 | 1017.4 |
| 20260906060450 | 66 | 198 | 0.0 | 0.0 | 0.00 | 0.00 | 0.00 | 99 | 1017.5 |
| 20260906055946 | 66 | 209 | 0.0 | 0.0 | 0.00 | 0.00 | 0.00 | 99 | 1017.6 |
| 20260906055442 | 66 | 209 | 0.0 | 0.0 | 0.00 | 0.00 | 0.00 | 99 | 1017.6 |
| 20260906054937 | 66 | 209 | 0.0 | 0.0 | 0.00 | 0.00 | 0.00 | 99 | 1017.5 |
| 20260906054432 | 66 | 209 | 0.0 | 0.0 | 0.00 | 0.00 | 0.00 | 99 | 1017.7 |
| 20260906053928 | 66 | 209 | 0.0 | 0.0 | 0.00 | 0.00 | 0.00 | 99 | 1017.5 |
| 20260906053424 | 66 | 223 | 0.0 | 0.0 | 0.00 | 0.00 | 0.00 | 99 | 1017.5 |
| 20260906052919 | 66 | 223 | 0.0 | 0.0 | 0.00 | 0.00 | 0.00 | 98 | 1017.7 |
| 20260906052415 | 66 | 223 | 0.0 | 0.0 | 0.00 | 0.00 | 0.00 | 98 | 1017.4 |
| 20260906051912 | 66 | 223 | 0.0 | 0.0 | 0.00 | 0.00 | 0.00 | 98 | 1017.4 |
| 20260906051412 | 66 | 223 | 0.0 | 0.0 | 0.00 | 0.00 | 0.00 | 98 | 1017.5 |
| 20260906050909 | 66 | 211 | 0.0 | 0.0 | 0.00 | 0.00 | 0.00 | 98 | 1017.5 |
| 20260906050408 | 66 | 211 | 0.0 | 0.0 | 0.00 | 0.00 | 0.00 | 98 | 1017.4 |
| 20260906045907 | 66 | 211 | 0.0 | 0.0 | 0.00 | 0.00 | 0.00 | 98 | 1017.5 |
| 20260906045406 | 66 | 211 | 0.0 | 0.0 | 0.00 | 0.00 | 0.00 | 97 | 1017.6 |
| 20260906044903 | 66 | 211 | 0.0 | 0.0 | 0.00 | 0.00 | 0.00 | 97 | 1017.4 |
| 20260906044402 | 67 | 211 | 0.0 | 0.0 | 0.00 | 0.00 | 0.00 | 97 | 1017.4 |
| 20260906043858 | 67 | 198 | 0.0 | 0.0 | 0.00 | 0.00 | 0.00 | 97 | 1017.5 |
| 20260906043354 | 67 | 198 | 0.0 | 0.0 | 0.00 | 0.00 | 0.00 | 97 | 1017.5 |
| 20260906042849 | 67 | 198 | 0.0 | 0.0 | 0.00 | 0.00 | 0.00 | 96 | 1017.4 |
| 20260906042348 | 67 | 198 | 0.0 | 0.0 | 0.00 | 0.00 | 0.00 | 96 | 1017.6 |
| 20260906041844 | 67 | 193 | 0.0 | 0.0 | 0.00 | 0.00 | 0.00 | 96 | 1017.7 |
| 20260906041339 | 67 | 118 | 0.0 | 0.0 | 0.00 | 0.00 | 0.00 | 96 | 1017.8 |
| 20260906040839 | 68 | 137 | 0.0 | 0.9 | 0.00 | 0.00 | 0.00 | 95 | 1017.7 |
| 20260906040335 | 68 | 136 | 0.9 | 0.9 | 0.00 | 0.00 | 0.00 | 94 | 1017.7 |
| 20260906035830 | 69 | 136 | 0.0 | 0.9 | 0.00 | 0.00 | 0.00 | 93 | 1017.7 |
| 20260906035325 | 69 | 219 | 0.0 | 0.9 | 0.00 | 0.00 | 0.00 | 93 | 1017.9 |
| 20260906034821 | 69 | 216 | 0.0 | 0.0 | 0.00 | 0.00 | 0.00 | 92 | 1017.6 |
| 20260906034321 | 69 | 193 | 0.9 | 1.7 | 0.00 | 0.00 | 0.00 | 91 | 1017.5 |
| 20260906033817 | 70 | 252 | 0.0 | 1.7 | 0.00 | 0.00 | 0.00 | 91 | 1017.7 |
| 20260906033315 | 70 | 223 | 0.9 | 6.1 | 0.00 | 0.00 | 0.00 | 90 | 1017.8 |
| 20260906032812 | 70 | 226 | 2.6 | 3.5 | 0.00 | 0.00 | 0.00 | 90 | 1017.7 |
| 20260906032307 | 70 | 234 | 1.7 | 3.5 | 0.00 | 0.00 | 0.00 | 90 | 1017.7 |
| 20260906031803 | 70 | 246 | 0.9 | 2.6 | 0.00 | 0.00 | 0.00 | 90 | 1017.8 |
| 20260906031258 | 69 | 256 | 1.7 | 1.7 | 0.00 | 0.00 | 0.00 | 91 | 1017.8 |
| 20260906030758 | 69 | 242 | 0.9 | 2.6 | 0.00 | 0.00 | 0.00 | 92 | 1017.9 |
| 20260906030253 | 69 | 245 | 0.9 | 1.7 | 0.00 | 0.00 | 0.00 | 94 | 1017.8 |
| 20260906025753 | 68 | 242 | 0.9 | 0.9 | 0.00 | 0.00 | 0.00 | 96 | 1017.8 |
| 20260906025247 | 68 | 139 | 0.0 | 0.0 | 0.00 | 0.00 | 0.00 | 96 | 1018.0 |
| 20260906024746 | 68 | 138 | 0.0 | 0.0 | 0.00 | 0.00 | 0.00 | 95 | 1017.9 |
| 20260906024245 | 68 | 138 | 0.0 | 0.0 | 0.00 | 0.00 | 0.00 | 95 | 1018.0 |
| 20260906023741 | 68 | 145 | 0.0 | 0.0 | 0.00 | 0.00 | 0.00 | 95 | 1018.2 |
| 20260906023236 | 68 | 145 | 0.0 | 0.0 | 0.00 | 0.00 | 0.00 | 95 | 1018.1 |
| 20260906022732 | 68 | 143 | 0.0 | 0.0 | 0.00 | 0.00 | 0.00 | 94 | 1018.1 |
| 20260906022227 | 69 | 142 | 0.0 | 0.0 | 0.00 | 0.00 | 0.00 | 94 | 1018.2 |
| 20260906021723 | 69 | 143 | 0.0 | 0.9 | 0.00 | 0.00 | 0.00 | 94 | 1017.8 |
| 20260906021221 | 69 | 137 | 0.0 | 0.9 | 0.00 | 0.00 | 0.00 | 93 | 1018.0 |
| 20260906020716 | 69 | 136 | 0.9 | 0.9 | 0.00 | 0.00 | 0.00 | 92 | 1018.0 |
| 20260906020211 | 70 | 149 | 0.0 | 0.9 | 0.00 | 0.00 | 0.00 | 91 | 1018.4 |
| 20260906015706 | 71 | 154 | 0.0 | 0.9 | 0.00 | 0.00 | 0.00 | 89 | 1018.2 |
| 20260906015205 | 72 | 175 | 0.0 | 0.0 | 0.00 | 0.00 | 0.00 | 86 | 1018.2 |
| 20260906014704 | 72 | 233 | 0.9 | 0.9 | 0.00 | 0.00 | 0.00 | 85 | 1017.9 |
| 20260906014200 | 72 | 225 | 1.7 | 2.6 | 0.00 | 0.00 | 0.00 | 85 | 1018.0 |
| 20260906013656 | 71 | 230 | 0.9 | 1.7 | 0.00 | 0.00 | 0.00 | 87 | 1018.1 |
| 20260906013151 | 71 | 261 | 0.0 | 0.0 | 0.00 | 0.00 | 0.00 | 88 | 1018.0 |
| 20260906012652 | 71 | 218 | 0.0 | 0.0 | 0.00 | 0.00 | 0.00 | 87 | 1017.6 |
| 20260906012151 | 71 | 268 | 0.0 | 0.9 | 0.00 | 0.00 | 0.00 | 86 | 1017.8 |
| 20260906011647 | 71 | 231 | 0.0 | 1.7 | 0.00 | 0.00 | 0.00 | 86 | 1017.7 |
| 20260906011142 | 71 | 214 | 0.0 | 0.9 | 0.00 | 0.00 | 0.00 | 86 | 1017.6 |
| 20260906010637 | 71 | 229 | 0.0 | 0.9 | 0.00 | 0.00 | 0.00 | 86 | 1017.3 |
| 20260906010134 | 71 | 292 | 3.5 | 3.5 | 0.00 | 0.00 | 0.00 | 86 | 1017.6 |
| 20260906005632 | 71 | 227 | 0.9 | 1.7 | 0.00 | 0.00 | 0.00 | 86 | 1017.5 |
| 20260906005127 | 71 | 227 | 0.0 | 0.9 | 0.00 | 0.00 | 0.00 | 86 | 1017.6 |
| 20260906004626 | 72 | 226 | 0.0 | 0.0 | 0.00 | 0.00 | 0.00 | 84 | 1017.4 |
| 20260906004121 | 72 | 245 | 0.9 | 1.7 | 0.00 | 0.00 | 0.00 | 83 | 1017.4 |
| 20260906003617 | 73 | 260 | 0.9 | 2.6 | 0.00 | 0.00 | 0.00 | 83 | 1017.3 |
| 20260906003112 | 73 | 214 | 0.0 | 0.9 | 0.00 | 0.00 | 0.00 | 83 | 1017.2 |
| 20260906002606 | 72 | 223 | 0.0 | 0.9 | 0.00 | 0.00 | 0.00 | 84 | 1017.3 |
| 20260906002101 | 72 | 211 | 1.7 | 1.7 | 0.00 | 0.00 | 0.00 | 84 | 1017.3 |
| 20260906001551 | 72 | 178 | 0.0 | 1.7 | 0.00 | 0.00 | 0.00 | 85 | 1017.4 |
| 20260906001051 | 73 | 221 | 0.0 | 0.0 | 0.00 | 0.00 | 0.00 | 83 | 1017.2 |
| 20260906000547 | 73 | 216 | 0.0 | 0.9 | 0.00 | 0.00 | 0.00 | 82 | 1017.3 |
| 20260906000042 | 73 | 216 | 0.0 | 0.9 | 0.00 | 0.00 | 0.00 | 81 | 1017.2 |
| 20260905235541 | 74 | 276 | 1.7 | 1.7 | 0.00 | 0.00 | 0.00 | 81 | 1017.4 |
| 20260905235036 | 74 | 220 | 0.0 | 0.9 | 0.00 | 0.00 | 0.00 | 80 | 1017.1 |
| 20260905234532 | 74 | 276 | 0.0 | 1.7 | 0.00 | 0.00 | 0.00 | 80 | 1017.4 |
| 20260905234026 | 74 | 221 | 0.0 | 2.6 | 0.00 | 0.00 | 0.00 | 79 | 1017.1 |
| 20260905233521 | 75 | 212 | 0.0 | 2.6 | 0.00 | 0.00 | 0.00 | 78 | 1017.0 |
| 20260905233021 | 75 | 233 | 1.7 | 1.7 | 0.00 | 0.00 | 0.00 | 78 | 1017.1 |
| 20260905232516 | 76 | 209 | 0.9 | 2.6 | 0.00 | 0.00 | 0.00 | 77 | 1016.8 |
| 20260905232012 | 76 | 238 | 0.9 | 1.7 | 0.00 | 0.00 | 0.00 | 77 | 1017.1 |
| 20260905231507 | 76 | 212 | 0.9 | 6.1 | 0.00 | 0.00 | 0.00 | 75 | 1017.1 |
| 20260905231003 | 77 | 222 | 0.9 | 0.9 | 0.00 | 0.00 | 0.00 | 77 | 1017.2 |
| 20260905230502 | 77 | 334 | 0.0 | 2.6 | 0.00 | 0.00 | 0.00 | 75 | 1017.1 |
| 20260905230000 | 78 | 228 | 0.9 | 1.7 | 0.00 | 0.00 | 0.00 | 75 | 1017.4 |
| 20260905225455 | 78 | 224 | 0.0 | 0.9 | 0.00 | 0.00 | 0.00 | 73 | 1017.0 |
| 20260905224951 | 78 | 254 | 0.9 | 2.6 | 0.00 | 0.00 | 0.00 | 73 | 1017.4 |
| 20260905224446 | 78 | 198 | 0.0 | 2.6 | 0.00 | 0.00 | 0.00 | 73 | 1017.1 |
| 20260905223945 | 78 | 12 | 1.7 | 5.2 | 0.00 | 0.00 | 0.00 | 72 | 1017.1 |
| 20260905223443 | 78 | 331 | 0.9 | 2.6 | 0.00 | 0.00 | 0.00 | 71 | 1017.2 |
| 20260905222938 | 78 | 19 | 0.0 | 1.7 | 0.00 | 0.00 | 0.00 | 71 | 1017.3 |
| 20260905222437 | 78 | 268 | 0.9 | 0.9 | 0.00 | 0.00 | 0.00 | 71 | 1017.3 |
| 20260905221933 | 78 | 27 | 1.7 | 5.2 | 0.00 | 0.00 | 0.00 | 71 | 1017.2 |
| 20260905221429 | 79 | 274 | 0.9 | 5.2 | 0.00 | 0.00 | 0.00 | 70 | 1017.3 |
| 20260905220926 | 79 | 355 | 5.2 | 12.2 | 0.00 | 0.00 | 0.00 | 67 | 1016.8 |
| 20260905220421 | 79 | 7 | 4.3 | 7.0 | 0.00 | 0.00 | 0.00 | 67 | 1016.8 |
| 20260905215920 | 80 | 222 | 1.7 | 2.6 | 0.00 | 0.00 | 0.00 | 66 | 1017.0 |
| 20260905215416 | 82 | 350 | 2.6 | 5.2 | 0.00 | 0.00 | 0.00 | 65 | 1016.6 |
| 20260905214912 | 82 | 184 | 0.0 | 0.9 | 0.00 | 0.00 | 0.00 | 69 | 1016.6 |
| 20260905214408 | 82 | 283 | 3.5 | 3.5 | 0.00 | 0.00 | 0.00 | 65 | 1016.6 |
| 20260905213908 | 82 | 326 | 2.6 | 2.6 | 0.00 | 0.00 | 0.00 | 65 | 1016.7 |
| 20260905213404 | 83 | 309 | 3.5 | 5.2 | 0.00 | 0.00 | 0.00 | 63 | 1016.5 |
| 20260905212859 | 82 | 303 | 0.9 | 5.2 | 0.00 | 0.00 | 0.00 | 65 | 1016.5 |
| 20260905212354 | 82 | 81 | 0.9 | 3.5 | 0.00 | 0.00 | 0.00 | 65 | 1016.4 |
| 20260905211853 | 83 | 338 | 2.6 | 3.5 | 0.00 | 0.00 | 0.00 | 63 | 1016.3 |
| 20260905211349 | 83 | 13 | 0.9 | 0.9 | 0.00 | 0.00 | 0.00 | 62 | 1016.4 |
| 20260905210845 | 82 | 328 | 2.6 | 3.5 | 0.00 | 0.00 | 0.00 | 62 | 1016.5 |
| 20260905210345 | 83 | 253 | 1.7 | 5.2 | 0.00 | 0.00 | 0.00 | 63 | 1016.4 |
| 20260905205839 | 83 | 214 | 0.0 | 1.7 | 0.00 | 0.00 | 0.00 | 63 | 1016.5 |
| 20260905205339 | 82 | 234 | 0.9 | 2.6 | 0.00 | 0.00 | 0.00 | 65 | 1016.4 |
| 20260905204833 | 83 | 256 | 0.9 | 5.2 | 0.00 | 0.00 | 0.00 | 63 | 1016.4 |
| 20260905204329 | 83 | 328 | 5.2 | 7.0 | 0.00 | 0.00 | 0.00 | 61 | 1016.4 |
| 20260905203827 | 83 | 243 | 2.6 | 8.7 | 0.00 | 0.00 | 0.00 | 61 | 1016.4 |
| 20260905203324 | 82 | 196 | 0.9 | 3.5 | 0.00 | 0.00 | 0.00 | 65 | 1016.3 |
| 20260905202819 | 82 | 317 | 3.5 | 5.2 | 0.00 | 0.00 | 0.00 | 62 | 1016.3 |
| 20260905202314 | 82 | 302 | 3.5 | 5.2 | 0.00 | 0.00 | 0.00 | 65 | 1016.3 |
| 20260905201809 | 81 | 22 | 1.7 | 7.0 | 0.00 | 0.00 | 0.00 | 69 | 1016.4 |
| 20260905201304 | 81 | 339 | 1.7 | 5.2 | 0.00 | 0.00 | 0.00 | 66 | 1016.6 |
| 20260905200759 | 81 | 123 | 2.6 | 5.2 | 0.00 | 0.00 | 0.00 | 65 | 1016.5 |
| 20260905200255 | 83 | 250 | 2.6 | 5.2 | 0.00 | 0.00 | 0.00 | 66 | 1016.7 |
| 20260905195752 | 82 | 243 | 1.7 | 5.2 | 0.00 | 0.00 | 0.00 | 69 | 1016.5 |
| 20260905195248 | 81 | 71 | 0.9 | 2.6 | 0.00 | 0.00 | 0.00 | 68 | 1016.4 |
| 20260905194744 | 80 | 309 | 2.6 | 5.2 | 0.00 | 0.00 | 0.00 | 69 | 1016.5 |
| 20260905194243 | 82 | 354 | 1.7 | 5.2 | 0.00 | 0.00 | 0.00 | 67 | 1016.5 |
| 20260905193742 | 82 | 41 | 2.6 | 5.2 | 0.00 | 0.00 | 0.00 | 66 | 1016.7 |
| 20260905193238 | 81 | 349 | 2.6 | 5.2 | 0.00 | 0.00 | 0.00 | 69 | 1016.8 |
| 20260905192733 | 82 | 223 | 3.5 | 5.2 | 0.00 | 0.00 | 0.00 | 65 | 1016.8 |
| 20260905192230 | 82 | 341 | 2.6 | 5.2 | 0.00 | 0.00 | 0.00 | 69 | 1016.8 |
| 20260905191729 | 82 | 193 | 0.0 | 5.2 | 0.00 | 0.00 | 0.00 | 68 | 1016.8 |
| 20260905191226 | 83 | 213 | 1.7 | 2.6 | 0.00 | 0.00 | 0.00 | 68 | 1017.1 |
| 20260905190726 | 82 | 248 | 0.9 | 3.5 | 0.00 | 0.00 | 0.00 | 69 | 1017.2 |
| 20260905190224 | 82 | 230 | 1.7 | 3.5 | 0.00 | 0.00 | 0.00 | 70 | 1017.3 |
| 20260905185723 | 80 | 34 | 0.9 | 3.5 | 0.00 | 0.00 | 0.00 | 71 | 1017.3 |
| 20260905185218 | 81 | 352 | 2.6 | 2.6 | 0.00 | 0.00 | 0.00 | 68 | 1017.3 |
| 20260905184713 | 81 | 203 | 0.9 | 2.6 | 0.00 | 0.00 | 0.00 | 69 | 1017.5 |
| 20260905184212 | 81 | 238 | 2.6 | 2.6 | 0.00 | 0.00 | 0.00 | 72 | 1017.5 |
| 20260905183711 | 80 | 249 | 2.6 | 3.5 | 0.00 | 0.00 | 0.00 | 71 | 1017.6 |
| 20260905183207 | 79 | 336 | 3.5 | 5.2 | 0.00 | 0.00 | 0.00 | 74 | 1017.7 |
| 20260905182706 | 79 | 328 | 1.7 | 6.1 | 0.00 | 0.00 | 0.00 | 77 | 1017.8 |
| 20260905182206 | 78 | 239 | 1.7 | 5.2 | 0.00 | 0.00 | 0.00 | 81 | 1017.9 |
| 20260905181702 | 78 | 289 | 1.7 | 3.5 | 0.00 | 0.00 | 0.00 | 79 | 1017.8 |
| 20260905181200 | 79 | 207 | 0.9 | 1.7 | 0.00 | 0.00 | 0.00 | 81 | 1017.9 |
| 20260905180655 | 78 | 280 | 0.9 | 2.6 | 0.00 | 0.00 | 0.00 | 81 | 1018.1 |
| 20260905180151 | 78 | 330 | 1.7 | 1.7 | 0.00 | 0.00 | 0.00 | 82 | 1018.1 |
| 20260905175649 | 78 | 177 | 0.9 | 2.6 | 0.00 | 0.00 | 0.00 | 84 | 1018.0 |
| 20260905175145 | 76 | 191 | 0.0 | 5.2 | 0.00 | 0.00 | 0.00 | 86 | 1018.1 |
| 20260905174641 | 76 | 317 | 1.7 | 2.6 | 0.00 | 0.00 | 0.00 | 86 | 1018.4 |
| 20260905174136 | 76 | 346 | 3.5 | 3.5 | 0.00 | 0.00 | 0.00 | 83 | 1018.0 |
| 20260905173632 | 76 | 357 | 4.3 | 6.1 | 0.00 | 0.00 | 0.00 | 83 | 1018.2 |
| 20260905173128 | 76 | 304 | 2.6 | 2.6 | 0.00 | 0.00 | 0.00 | 84 | 1018.1 |
| 20260905172626 | 75 | 235 | 2.6 | 3.5 | 0.00 | 0.00 | 0.00 | 85 | 1018.0 |
| 20260905172121 | 75 | 256 | 3.5 | 11.3 | 0.00 | 0.00 | 0.00 | 87 | 1018.5 |
| 20260905171618 | 75 | 222 | 1.7 | 2.6 | 0.00 | 0.00 | 0.00 | 87 | 1018.1 |
| 20260905171113 | 75 | 185 | 1.7 | 3.5 | 0.00 | 0.00 | 0.00 | 88 | 1018.1 |
| 20260905170610 | 74 | 235 | 1.7 | 6.1 | 0.00 | 0.00 | 0.00 | 88 | 1018.4 |
| 20260905170105 | 74 | 194 | 5.2 | 7.0 | 0.00 | 0.00 | 0.00 | 88 | 1018.1 |
| 20260905165559 | 73 | 218 | 5.2 | 6.1 | 0.00 | 0.00 | 0.00 | 89 | 1018.0 |
| 20260905165054 | 73 | 182 | 3.5 | 7.0 | 0.00 | 0.00 | 0.00 | 91 | 1018.2 |
| 20260905164550 | 72 | 236 | 3.5 | 7.0 | 0.00 | 0.00 | 0.00 | 92 | 1018.1 |
| 20260905164049 | 72 | 211 | 3.5 | 7.0 | 0.00 | 0.00 | 0.00 | 92 | 1018.2 |
| 20260905163546 | 71 | 230 | 2.6 | 5.2 | 0.00 | 0.00 | 0.00 | 92 | 1018.6 |
| 20260905163042 | 72 | 234 | 2.6 | 5.2 | 0.00 | 0.00 | 0.00 | 92 | 1018.8 |
| 20260905162538 | 72 | 198 | 0.9 | 3.5 | 0.00 | 0.00 | 0.00 | 92 | 1019.0 |
| 20260905162032 | 72 | 277 | 0.0 | 0.9 | 0.00 | 0.00 | 0.00 | 93 | 1019.0 |
| 20260905161531 | 72 | 175 | 0.9 | 1.7 | 0.00 | 0.00 | 0.00 | 93 | 1019.4 |
| 20260905161029 | 71 | 168 | 2.6 | 3.5 | 0.00 | 0.00 | 0.00 | 93 | 1019.5 |
| 20260905160528 | 71 | 131 | 0.9 | 1.7 | 0.00 | 0.00 | 0.00 | 93 | 1019.8 |
| 20260905160028 | 71 | 108 | 0.0 | 0.0 | 0.00 | 0.00 | 0.00 | 93 | 1020.0 |
| 20260905155528 | 71 | 67 | 0.0 | 0.9 | 0.00 | 0.00 | 0.00 | 93 | 1020.0 |
| 20260905155026 | 71 | 89 | 0.0 | 0.0 | 0.00 | 0.00 | 0.00 | 94 | 1020.2 |
| 20260905154522 | 70 | 98 | 0.9 | 2.6 | 0.00 | 0.00 | 0.00 | 93 | 1020.2 |
| 20260905154018 | 71 | 78 | 1.7 | 1.7 | 0.00 | 0.00 | 0.00 | 93 | 1020.2 |
| 20260905153514 | 71 | 64 | 1.7 | 2.6 | 0.00 | 0.00 | 0.00 | 92 | 1020.2 |
| 20260905153013 | 72 | 90 | 1.7 | 3.5 | 0.00 | 0.00 | 0.00 | 91 | 1020.4 |
| 20260905152513 | 72 | 148 | 0.0 | 2.6 | 0.00 | 0.00 | 0.00 | 92 | 1020.4 |
| 20260905152008 | 71 | 225 | 0.0 | 1.7 | 0.00 | 0.00 | 0.00 | 94 | 1020.4 |
| 20260905151504 | 70 | 185 | 0.0 | 0.0 | 0.00 | 0.00 | 0.00 | 97 | 1020.4 |
| 20260905150959 | 69 | 206 | 0.0 | 0.9 | 0.00 | 0.00 | 0.00 | 97 | 1020.3 |
| 20260905150454 | 69 | 211 | 0.0 | 0.9 | 0.00 | 0.00 | 0.00 | 97 | 1020.3 |
| 20260905145950 | 68 | 200 | 0.0 | 0.9 | 0.00 | 0.00 | 0.00 | 97 | 1020.3 |
| 20260905145445 | 68 | 353 | 1.7 | 1.7 | 0.00 | 0.00 | 0.00 | 97 | 1020.3 |
| 20260905144944 | 67 | 205 | 0.0 | 2.6 | 0.00 | 0.00 | 0.00 | 96 | 1020.1 |
| 20260905144440 | 67 | 229 | 0.9 | 5.2 | 0.00 | 0.00 | 0.00 | 96 | 1020.3 |
| 20260905143939 | 68 | 267 | 7.0 | 8.7 | 0.00 | 0.00 | 0.00 | 95 | 1020.3 |
| 20260905143432 | 70 | 8 | 6.1 | 8.7 | 0.00 | 0.00 | 0.00 | 91 | 1020.5 |
| 20260905142927 | 71 | 304 | 3.5 | 12.2 | 0.00 | 0.00 | 0.00 | 90 | 1020.3 |
| 20260905142426 | 72 | 306 | 6.1 | 9.6 | 0.00 | 0.00 | 0.00 | 90 | 1020.1 |
| 20260905141921 | 73 | 195 | 5.2 | 11.3 | 0.00 | 0.00 | 0.00 | 90 | 1020.3 |
| 20260905141416 | 74 | 319 | 0.9 | 2.6 | 0.00 | 0.00 | 0.00 | 88 | 1019.1 |
| 20260905140913 | 74 | 256 | 3.5 | 6.1 | 0.00 | 0.00 | 0.00 | 88 | 1019.2 |
| 20260905140408 | 74 | 240 | 0.9 | 2.6 | 0.00 | 0.00 | 0.00 | 88 | 1019.0 |
| 20260905135906 | 74 | 198 | 0.9 | 2.6 | 0.00 | 0.00 | 0.00 | 88 | 1019.2 |
| 20260905135402 | 74 | 281 | 1.7 | 3.5 | 0.00 | 0.00 | 0.00 | 88 | 1019.1 |
| 20260905134857 | 74 | 245 | 3.5 | 5.2 | 0.00 | 0.00 | 0.00 | 87 | 1019.1 |
| 20260905134356 | 74 | 192 | 4.3 | 6.1 | 0.00 | 0.00 | 0.00 | 87 | 1019.2 |
| 20260905133850 | 74 | 215 | 1.7 | 2.6 | 0.00 | 0.00 | 0.00 | 87 | 1019.2 |
| 20260905133346 | 75 | 274 | 2.6 | 5.2 | 0.00 | 0.00 | 0.00 | 86 | 1019.1 |
| 20260905132844 | 75 | 232 | 0.9 | 2.6 | 0.00 | 0.00 | 0.00 | 85 | 1019.1 |
| 20260905132340 | 76 | 277 | 4.3 | 6.1 | 0.00 | 0.00 | 0.00 | 84 | 1019.2 |
| 20260905131835 | 76 | 292 | 1.7 | 5.2 | 0.00 | 0.00 | 0.00 | 84 | 1019.1 |
| 20260905131330 | 76 | 261 | 5.2 | 6.1 | 0.00 | 0.00 | 0.00 | 84 | 1019.0 |
| 20260905130826 | 76 | 197 | 3.5 | 5.2 | 0.00 | 0.00 | 0.00 | 83 | 1019.1 |
| 20260905130324 | 76 | 260 | 5.2 | 7.0 | 0.00 | 0.00 | 0.00 | 83 | 1018.9 |
| 20260905125820 | 75 | 201 | 3.5 | 7.8 | 0.00 | 0.00 | 0.00 | 84 | 1019.0 |
| 20260905125315 | 74 | 248 | 2.6 | 6.1 | 0.00 | 0.00 | 0.00 | 84 | 1019.0 |
| 20260905124811 | 74 | 317 | 1.7 | 2.6 | 0.00 | 0.00 | 0.00 | 84 | 1019.0 |
| 20260905124307 | 75 | 241 | 0.9 | 3.5 | 0.00 | 0.00 | 0.00 | 84 | 1019.1 |
| 20260905123801 | 75 | 215 | 3.5 | 5.2 | 0.00 | 0.00 | 0.00 | 83 | 1019.1 |
| 20260905123259 | 75 | 265 | 3.5 | 5.2 | 0.00 | 0.00 | 0.00 | 82 | 1019.2 |
| 20260905122758 | 75 | 238 | 2.6 | 3.5 | 0.00 | 0.00 | 0.00 | 83 | 1019.1 |
| 20260905122257 | 74 | 241 | 4.3 | 6.1 | 0.00 | 0.00 | 0.00 | 83 | 1018.9 |
| 20260905121753 | 74 | 270 | 2.6 | 5.2 | 0.00 | 0.00 | 0.00 | 84 | 1018.9 |
| 20260905121249 | 74 | 245 | 3.5 | 5.2 | 0.00 | 0.00 | 0.00 | 85 | 1018.8 |
| 20260905120747 | 73 | 252 | 2.6 | 5.2 | 0.00 | 0.00 | 0.00 | 86 | 1018.9 |
| 20260905120242 | 72 | 235 | 4.3 | 5.2 | 0.00 | 0.00 | 0.00 | 88 | 1018.7 |
| 20260905115737 | 72 | 245 | 1.7 | 3.5 | 0.00 | 0.00 | 0.00 | 87 | 1018.9 |
| 20260905115237 | 72 | 212 | 1.7 | 5.2 | 0.00 | 0.00 | 0.00 | 87 | 1018.7 |
| 20260905114732 | 72 | 251 | 1.7 | 3.5 | 0.00 | 0.00 | 0.00 | 87 | 1018.8 |
| 20260905114230 | 71 | 234 | 0.9 | 2.6 | 0.00 | 0.00 | 0.00 | 88 | 1018.7 |
| 20260905113729 | 71 | 274 | 3.5 | 7.0 | 0.00 | 0.00 | 0.00 | 89 | 1018.8 |
| 20260905113225 | 71 | 238 | 3.5 | 6.1 | 0.00 | 0.00 | 0.00 | 89 | 1018.5 |
| 20260905112725 | 70 | 303 | 1.7 | 6.1 | 0.00 | 0.00 | 0.00 | 90 | 1018.9 |
| 20260905112221 | 71 | 237 | 1.7 | 7.0 | 0.00 | 0.00 | 0.00 | 90 | 1018.6 |
| 20260905111720 | 71 | 238 | 4.3 | 7.8 | 0.00 | 0.00 | 0.00 | 89 | 1018.7 |